HB9TQJ-6 Weather Reports


time (UTC)temp
F
wind
direction
speed
knots
gust
knots
rain 1hr
in
rain 24hr
in
rain mn
in
humidity
%
barometer
mb
20260502211034 62 90 0.9 0.9 0.00 0.00 0.00 65 1016.6
20260502205531 62 122 0.9 1.7 0.00 0.00 0.00 64 1016.5
20260502204509 63 90 0.9 1.7 0.00 0.00 0.00 63 1016.6
20260502203506 63 90 0.9 0.9 0.00 0.00 0.00 63 1016.5
20260502202505 64 90 0.9 0.9 0.00 0.00 0.00 62 1016.4
20260502201522 64 90 0.9 1.7 0.00 0.00 0.00 60 1016.3
20260502200502 65 90 0.9 0.9 0.00 0.00 0.00 59 1016.2
20260502195519 65 90 0.9 0.9 0.00 0.00 0.00 58 1016.1
20260502194457 65 90 0.9 0.9 0.00 0.00 0.00 58 1016.1
20260502193455 66 90 0.9 0.9 0.00 0.00 0.00 57 1016.0
20260502192452 66 90 0.9 1.7 0.00 0.00 0.00 57 1016.0
20260502191451 66 90 0.9 1.7 0.00 0.00 0.00 58 1015.9
20260502190451 67 90 0.9 1.7 0.00 0.00 0.00 59 1015.9
20260502185447 67 90 0.9 0.9 0.00 0.00 0.00 58 1015.8
20260502184446 68 90 0.9 0.9 0.00 0.00 0.00 57 1015.6
20260502183444 68 90 0.9 1.7 0.00 0.00 0.00 57 1015.6
20260502182442 68 142 0.9 1.7 0.00 0.00 0.00 57 1015.5
20260502181440 69 90 0.9 1.7 0.00 0.00 0.00 58 1015.5
20260502180437 69 90 0.9 1.7 0.00 0.00 0.00 58 1015.5
20260502170424 72 90 0.9 0.9 0.00 0.00 0.00 50 1015.2
20260502163420 73 18 0.9 0.9 0.00 0.00 0.00 47 1015.5
20260502162417 73 45 0.9 1.7 0.00 0.00 0.00 48 1015.8
20260502161414 73 24 0.9 1.7 0.00 0.00 0.00 48 1015.8
20260502160414 73 90 0.9 1.7 0.00 0.00 0.00 47 1015.9
20260502151403 73 90 0.9 2.6 0.00 0.00 0.00 48 1016.4
20260502150401 72 45 0.9 3.5 0.00 0.00 0.00 48 1016.5
20260502130337 71 33 0.9 1.7 0.00 0.00 0.00 53 1018.5
20260502123351 70 90 0.9 3.5 0.00 0.00 0.00 54 1018.8
20260502122350 70 56 0.9 0.9 0.00 0.00 0.00 55 1018.9
20260502121327 69 39 0.9 0.9 0.00 0.00 0.00 55 1019.2
20260502120324 69 90 0.9 2.6 0.00 0.00 0.00 56 1019.4
20260502115322 69 37 0.9 1.7 0.00 0.00 0.00 56 1019.5
20260502114341 69 90 0.9 1.7 0.00 0.00 0.00 57 1019.6
20260502113319 69 45 0.9 1.7 0.00 0.00 0.00 56 1019.8
20260502112318 68 50 0.9 1.7 0.00 0.00 0.00 56 1019.9
20260502111338 68 45 0.9 1.7 0.00 0.00 0.00 56 1020.1
20260502110313 67 45 0.9 1.7 0.00 0.00 0.00 56 1020.2
20260502105311 67 90 0.9 1.7 0.00 0.00 0.00 57 1020.3
20260502104309 67 60 0.9 1.7 0.00 0.00 0.00 58 1020.5
20260502103307 66 90 0.9 1.7 0.00 0.00 0.00 57 1020.7
20260502102306 66 60 0.9 1.7 0.00 0.00 0.00 56 1020.8
20260502101303 65 90 0.9 1.7 0.00 0.00 0.00 56 1021.0
20260502100301 65 29 0.9 1.7 0.00 0.00 0.00 56 1021.1
20260502091253 62 90 0.9 1.7 0.00 0.00 0.00 58 1021.8
20260502090310 62 90 0.9 1.7 0.00 0.00 0.00 59 1021.9
20260502071238 55 40 0.9 1.7 0.00 0.00 0.00 65 1022.5
20260502070224 55 38 0.9 1.7 0.00 0.00 0.00 65 1022.5
20260502065223 54 20 0.9 1.7 0.00 0.00 0.00 65 1022.5
20260502064221 54 37 0.9 1.7 0.00 0.00 0.00 65 1022.5
20260502063218 54 29 0.9 0.9 0.00 0.00 0.00 66 1022.5
20260502062217 54 45 0.9 0.9 0.00 0.00 0.00 66 1022.5
20260502061215 54 45 0.9 0.9 0.00 0.00 0.00 65 1022.6
20260502060213 53 39 0.9 1.7 0.00 0.00 0.00 67 1022.6
20260502055231 51 45 0.9 1.7 0.00 0.00 0.00 68 1022.6
20260502054210 51 56 0.9 0.9 0.00 0.00 0.00 68 1022.6
20260502053207 51 45 0.9 0.9 0.00 0.00 0.00 69 1022.5
20260502052205 50 90 0.9 0.9 0.00 0.00 0.00 69 1022.5
20260502051222 50 55 0.9 0.9 0.00 0.00 0.00 69 1022.3
20260502050201 50 49 0.9 0.9 0.00 0.00 0.00 68 1022.3
20260502045158 50 59 0.9 1.7 0.00 0.00 0.00 69 1022.2
20260502044157 49 90 0.9 0.9 0.00 0.00 0.00 69 1022.2
20260502043154 49 90 0.9 1.7 0.00 0.00 0.00 69 1022.2
20260502042153 49 90 0.9 0.9 0.00 0.00 0.00 69 1022.2
20260502041151 49 90 0.9 0.9 0.00 0.00 0.00 69 1022.1
20260502040151 49 90 0.9 0.9 0.00 0.00 0.00 69 1022.1
20260502035207 49 90 0.9 0.9 0.00 0.00 0.00 69 1022.2
20260502034145 49 90 0.9 0.9 0.00 0.00 0.00 69 1022.2
20260502033143 50 90 0.9 0.9 0.00 0.00 0.00 69 1022.2
20260502032202 50 90 0.9 1.7 0.00 0.00 0.00 68 1022.1
20260502031159 50 90 0.9 1.7 0.00 0.00 0.00 68 1022.2
20260502030136 50 90 0.9 0.9 0.00 0.00 0.00 68 1022.3
20260502025136 50 90 0.9 1.7 0.00 0.00 0.00 68 1022.2
20260502024133 50 90 0.9 0.9 0.00 0.00 0.00 67 1022.0
20260502023151 51 90 0.9 0.9 0.00 0.00 0.00 67 1022.1
20260502022130 51 90 0.9 0.9 0.00 0.00 0.00 68 1022.1
20260502021128 51 90 0.9 1.7 0.00 0.00 0.00 68 1022.1
20260502020125 51 90 0.9 0.9 0.00 0.00 0.00 67 1022.1
20260502015143 51 90 0.9 1.7 0.00 0.00 0.00 68 1022.1
20260502014121 51 90 0.9 1.7 0.00 0.00 0.00 68 1022.1
20260502013119 51 90 0.9 0.9 0.00 0.00 0.00 68 1022.2
20260502012117 51 90 0.9 0.9 0.00 0.00 0.00 68 1022.2
20260502011115 51 90 0.9 1.7 0.00 0.00 0.00 67 1022.2
20260502010124 51 90 0.9 1.7 0.00 0.00 0.00 67 1022.2
20260502005116 51 90 0.9 1.7 0.00 0.00 0.00 67 1022.2
20260502004130 52 90 0.9 1.7 0.00 0.00 0.00 67 1022.2
20260502003108 52 90 0.9 1.7 0.00 0.00 0.00 67 1022.2
20260502002105 52 90 0.9 1.7 0.00 0.00 0.00 67 1022.2
20260502001122 52 90 0.9 1.7 0.00 0.00 0.00 67 1022.3
20260502000100 52 108 0.9 1.7 0.00 0.00 0.00 66 1022.6
20260501235100 52 107 0.9 1.7 0.00 0.00 0.00 66 1022.5
20260501234058 52 107 0.9 1.7 0.00 0.00 0.00 66 1022.5
20260501233056 53 90 0.9 1.7 0.00 0.00 0.00 65 1022.5
20260501232104 53 90 0.9 1.7 0.00 0.00 0.00 65 1022.5
20260501231052 53 90 0.9 1.7 0.00 0.00 0.00 65 1022.5
20260501230049 53 90 0.9 1.7 0.00 0.00 0.00 64 1022.5
20260501225047 53 90 0.9 1.7 0.00 0.00 0.00 64 1022.5
20260501224045 54 90 0.9 1.7 0.00 0.00 0.00 63 1022.5
20260501223043 54 90 0.9 1.7 0.00 0.00 0.00 62 1022.2
20260501222041 55 90 0.9 1.7 0.00 0.00 0.00 61 1022.2
20260501221100 55 90 0.9 1.7 0.00 0.00 0.00 60 1022.2
20260501220058 55 90 0.9 1.7 0.00 0.00 0.00 60 1022.2
20260501215035 55 115 0.9 1.7 0.00 0.00 0.00 60 1022.2